Weather History for Corona, CA

Change the Weather History Date:

Monday, December 16, 2013

  Actual Average (KONT) Record (KONT)
Temperature  
Mean Temperature 62 °F 54 °F  
Max Temperature 86 °F 65 °F 84 °F (2013)
Min Temperature 37 °F 42 °F 33 °F (2001)
Degree Days  
Heating Degree Days 4 11  
Month to date heating degree days 170  
Since 1 July heating degree days 392  
Cooling Degree Days 0 0  
Month to date cooling degree days 0  
Year to date cooling degree days 1705  
Growing Degree Days 12 (Base 50)    
Moisture  
Dew Point 27 °F    
Average Humidity 32    
Maximum Humidity 71    
Minimum Humidity 10    
Precipitation  
Precipitation 0.00 in 0.05 in 1.39 in (2002)
Month to date precipitation 0.68  
Year to date precipitation 13.40  
Since 1 July precipitation 3.02  
Snow  
Snow 0.00 in - - ()
Month to date snowfall  
Year to date snowfall  
Since 1 July snowfall  
Snow Depth -    
Sea Level Pressure  
Sea Level Pressure 30.10 in    
Wind  
Wind Speed 3 mph (SE)    
Max Wind Speed 14 mph    
Max Gust Speed 21 mph    
Visibility 10 miles    
Events      
T = Trace of Precipitation, MM = Missing Value Source: NWS Daily Summary

Daily Weather History Graph

Daily Weather History Graph

Search for Another Location

Airport:

Trip Planner

Search our weather history database for the weather conditions in past years. The results will help you decide how hot, cold, wet, or windy it might be!

Date:

Astronomy

Dec. 16, 2013 Rise Set
Actual Time 6:49 AM PST 4:43 PM PST
Civil Twilight 6:21 AM PST 5:11 PM PST
Nautical Twilight 5:50 AM PST 5:42 PM PST
Astronomical Twilight 5:19 AM PST 6:12 PM PST
Moon 4:35 PM PST (12/16) 6:03 AM PST (12/16)
Length of Visible Light 10h 49m
Length of Day
9h 54m
Full, 100% of the Moon is Illuminated
Dec 16
Full
Dec 17
Full
Dec 25
Last Quarter
Jan 1
New
Jan 7
First Quarter

Hourly Weather History & Observations

Time (PST) Temp. Dew Point Humidity Pressure Visibility Wind Dir Wind Speed Gust Speed Precip Events Conditions
12:56 AM 48.9 °F 31.1 °F 50% 30.12 in 10.0 mi Calm Calm - N/A   Clear
1:56 AM 43.9 °F 30.0 °F 58% 30.12 in 10.0 mi Calm Calm - N/A   Clear
2:56 AM 39.9 °F 28.0 °F 63% 30.12 in 10.0 mi Calm Calm - N/A   Clear
3:56 AM 39.9 °F 29.1 °F 65% 30.11 in 10.0 mi Calm Calm - N/A   Clear
4:56 AM 38.8 °F 29.1 °F 68% 30.11 in 10.0 mi Calm Calm - N/A   Clear
5:56 AM 37.9 °F 29.1 °F 71% 30.12 in 10.0 mi Calm Calm - N/A   Clear
6:56 AM 39.9 °F 30.0 °F 68% 30.12 in 10.0 mi Calm Calm - N/A   Clear
7:56 AM 48.9 °F 32.9 °F 54% 30.14 in 10.0 mi Calm Calm - N/A   Clear
8:56 AM 57.9 °F 34.9 °F 42% 30.15 in 10.0 mi Calm Calm - 0.00 in   Clear
9:56 AM 79.9 °F 24.1 °F 13% 30.13 in 10.0 mi ESE 10.4 mph - N/A   Clear
10:56 AM 83.8 °F 22.1 °F 10% 30.11 in 10.0 mi SE 8.1 mph 18.4 mph N/A   Clear
11:56 AM 86.0 °F 23.0 °F 10% 30.08 in 10.0 mi ESE 12.7 mph - N/A   Clear
12:56 PM 86.9 °F 25.2 °F 11% 30.06 in 10.0 mi SE 6.9 mph - N/A   Partly Cloudy
1:56 PM 86.0 °F 24.1 °F 10% 30.05 in 10.0 mi ESE 8.1 mph - N/A   Partly Cloudy
2:56 PM 86.0 °F 23.0 °F 10% 30.05 in 10.0 mi ESE 8.1 mph - N/A   Clear
3:56 PM 81.0 °F 24.1 °F 12% 30.05 in 10.0 mi ESE 8.1 mph - N/A   Clear
4:56 PM 77.0 °F 24.1 °F 14% 30.06 in 10.0 mi SE 5.8 mph - N/A   Clear
5:56 PM 77.0 °F 24.1 °F 14% 30.08 in 4.0 mi SE 13.8 mph 20.7 mph N/A   Haze
6:56 PM 73.9 °F 25.2 °F 16% 30.09 in 10.0 mi SE 5.8 mph - N/A   Clear
7:56 PM 72.0 °F 26.1 °F 18% 30.09 in 10.0 mi SE 5.8 mph - N/A   Clear
8:56 PM 72.9 °F 25.2 °F 17% 30.10 in 10.0 mi SSE 6.9 mph - N/A   Clear
9:56 PM 68.0 °F 27.1 °F 22% 30.10 in 10.0 mi SE 8.1 mph - N/A   Clear
10:56 PM 63.0 °F 27.1 °F 26% 30.10 in 10.0 mi East 6.9 mph - N/A   Clear
11:56 PM 65.8 °F 27.1 °F 23% 30.09 in 10.0 mi Variable 6.9 mph - N/A   Clear